ARIANE 5 R/B, 44477

Orbit data source: Space-Track

ARIANE 5 R/B, 44477 is space debris in HEO originally from a launch on Tue, 06 Aug 2019 UTC launched from the French Guiana (FRGUI). Debris objects in space refer to the collection of defunct objects orbiting the Earth. Examples of debris include non-operational satellites, rocket bodies, and fragments generated from explosions, collisions, or faulty payload assembly.

Loading next visibility...
Identifier
44477, 2019-049C
Orbit
HEO
Country
Flag of FRFR
Related business
Manufacturer
ArianeGroup
Mission
Spacecraft
Bus & Motor
ESC-A, Unknown motor
Mass
~5,000 kg wet, ~5,000 kg dry
Launch date (UTC)
2019-08-06 (6 years ago)
Launch vehicle
Unknown
Launch site
French Guiana (FRGUI)
Object type
Payload
Rocket body
Debris
Shape & HBR
Cyl + 1 Nozzle, 3.5 m
Radar Cross Section
41.627 m², Large (>1 m²)

Expand to show TLE details & history
Last TLE update: 1 day ago

TLE from 1 day ago
0 ARIANE 5 R/B
1 44477U 19049C   25260.88529443  .00009252  00000-0  75871-3 0  9996
2 44477   4.4510  63.3941 6755681 185.2288 160.5394  2.99640035 57615
Epoch: 2025-09-17T21:14Z
TLE epoch observation values (Epoch: 2025-09-17T21:14:49.438Z)
Latitude
-0.00003°
Longitude
107.69786°
Altitude
27,374.595 km
Speed
2.002 km/s
True Right ascension
04h 13m 50s
True Declination
0° 00' 00"
Sunlit
Object was in daylight at epoch
Visualization orbit readout
Latitude
Unknown
Longitude
Unknown
Altitude
Unknown
Speed
Unknown
Apparent Right ascension
Unknown
Apparent Declination
Unknown
Sunlit
N/A
Visualization observer readout
Local Sidereal Time
16:37:36
Azimuth
Unknown
Elevation
Unknown
Doppler factor
Unknown
Orbital elements
Apogee altitude
27,684.542 km
Perigee altitude
217.25 km
Semi-major axis
20,329.033 km
Eccentricity
0.67557
Inclination
4.451°
RAAN
63.3941°
Arg. of periapsis
185.2288°
True anomaly
174.86089°
Mean anomaly
160.5394°
Eccentric anomaly
168.3534°
Mean motion
0.7488 °/min
Orbital period
480.77 mins
BSTAR
0.00075871
Loading maneuver chart data...
Computing Atmospheric mass density...
Loading historical data...
Loading historical data...
Loading historical data...
Loading historical data...
Loading historical data...
Loading historical data...
Loading historical data...
Other satellites on launch #49 in the year 2019 (2019-08-06 UTC)

Documentation

Showing up to 5 results
|